EST,Max TemperatureF,Mean TemperatureF,Min TemperatureF,Max Dew PointF,MeanDew PointF,Min DewpointF,Max Humidity, Mean Humidity, Min Humidity, Max Sea Level PressureIn, Mean Sea Level PressureIn, Min Sea Level PressureIn, Max VisibilityMiles, Mean VisibilityMiles, Min VisibilityMiles, Max Wind SpeedMPH, Mean Wind SpeedMPH, Max Gust SpeedMPH,PrecipitationIn, CloudCover, Events, WindDirDegrees
2012-12-1,59,50,40,47,41,37,100,79,57,30.26,30.18,30.04,10,6,2,18,8,26,0.00,5,,141
2012-12-2,57,55,52,54,50,45,93,80,66,30.11,30.00,29.95,10,6,2,17,9,25,0.12,8,Rain-Thunderstorm,219
2012-12-3,63,58,52,58,54,51,100,89,78,30.13,30.07,29.96,10,3,0,18,6,25,T,7,Fog,167
2012-12-4,61,50,39,54,45,33,92,81,69,30.15,30.02,29.95,10,10,3,20,11,26,0.06,6,Rain,255
2012-12-5,41,32,22,32,22,19,82,65,48,30.43,30.35,30.17,10,10,10,17,7,24,0.00,0,,342
2012-12-6,37,29,21,30,24,18,92,78,64,30.36,30.18,29.99,10,10,10,9,2,14,0.00,0,,148
2012-12-7,45,39,33,43,39,31,100,91,82,30.00,29.94,29.87,10,4,1,8,2,9,0.11,8,Rain,114
2012-12-8,43,39,34,41,38,30,100,91,82,30.16,29.91,29.80,10,4,0,14,6,18,0.05,8,Fog-Rain,22
2012-12-9,41,38,35,40,35,30,100,88,76,30.17,29.92,29.63,10,5,0,20,8,28,0.23,8,Fog-Rain,90
2012-12-10,42,38,33,41,34,26,96,83,70,29.89,29.70,29.63,10,8,1,17,10,22,T,8,,273
2012-12-11,35,32,28,27,23,18,78,66,54,30.22,30.05,29.89,10,9,1,18,9,24,0.01,6,Snow,242
2012-12-12,42,32,22,24,22,20,81,64,46,30.41,30.34,30.22,10,10,7,10,5,15,0.00,0,,206
2012-12-13,44,32,19,26,22,17,91,66,40,30.42,30.35,30.21,10,10,5,14,7,20,0.00,0,,193
2012-12-14,47,38,28,29,26,23,85,65,45,30.28,30.23,30.18,10,10,9,10,4,15,0.00,0,,225
2012-12-15,48,37,26,41,33,26,92,75,58,30.17,29.95,29.71,10,9,4,13,5,22,0.05,6,Rain,138
2012-12-16,54,48,42,48,45,38,89,78,66,29.71,29.66,29.60,10,10,10,20,11,28,T,8,,229
2012-12-17,42,40,37,37,34,33,82,76,70,29.76,29.69,29.62,10,8,6,15,5,20,0.02,8,Rain,298
2012-12-18,40,36,32,34,31,27,96,80,64,29.81,29.73,29.63,10,7,5,17,7,22,0.13,6,Rain,259
2012-12-19,42,37,32,35,33,30,100,85,70,30.12,29.97,29.72,10,6,1,14,3,18,0.00,7,,342
2012-12-20,49,41,33,45,36,28,92,78,64,30.03,29.42,29.18,10,7,2,37,13,54,0.87,8,Rain-Snow,152
2012-12-21,34,33,32,32,27,21,96,79,61,29.93,29.45,29.18,10,8,2,32,20,45,0.06,8,Snow,286
2012-12-22,37,31,24,23,20,19,81,67,52,30.13,30.06,29.95,10,10,10,24,14,32,0.00,4,,280
2012-12-23,37,28,18,24,20,15,92,72,52,30.05,29.98,29.94,10,9,6,12,4,15,0.00,0,,329
2012-12-24,35,28,20,30,25,17,92,81,69,30.02,29.90,29.79,10,8,2,16,7,21,0.02,6,Snow,56
2012-12-25,34,29,24,25,23,21,88,75,61,30.29,30.19,30.01,10,10,10,15,7,18,0.00,7,,10
2012-12-26,31,28,25,27,23,21,92,81,69,30.21,29.88,29.76,10,4,0,31,19,40,0.14,8,Fog-Snow,24
2012-12-27,31,25,18,23,21,16,91,80,69,30.18,30.05,29.86,10,10,7,16,8,22,T,5,Snow,309
2012-12-28,31,22,13,25,19,10,96,84,72,30.22,30.10,29.90,10,6,1,8,2,10,0.01,6,Snow,102
2012-12-29,29,26,23,27,25,20,92,89,85,30.11,29.87,29.78,10,3,0,13,7,24,0.23,8,Snow,350
2012-12-30,28,23,17,25,18,13,92,80,68,30.37,30.26,30.12,9,6,2,21,11,25,T,6,Snow,240
2012-12-31,34,27,20,28,24,15,92,77,61,30.23,30.05,29.97,10,7,1,23,13,30,0.04,6,Snow,231